If you wish to contribute or participate in the discussions about articles you are invited to join SKYbrary as a registered user

 Actions

Nevers-Fourchambault Airport

From SKYbrary Wiki

LFQG
Airport
ICAO: LFQG – IATA: NVS
Summary
Name Nevers-Fourchambault Airport
Region Europe
Territory France FR.gif
Location , Bourgogne
Serving Nevers
Elevation 183.49 m
602 ft
602 ft183.49 m
Type medium airport
Coordinates 47° 0' 9.45" N, 3° 6' 48.00" E
Runways
Designator Length Width Surface ROPS
12/30 1630 m5,347.769 ft
30 m98.425 ft
ASP /


METAR
Observation LFQG 171730Z AUTO 17004KT 9999 BKN034 OVC066 15/14 Q1013
Station Nevers
Date/Time 17 October 2019 17:30:00
Wind direction 170°
Wind speed 04 kts
Lowest cloud amount broken clouds
Temperature 15°C
Dew point 14°C
Humidity 93%
QNH 1013 hPa
Weather condition n/a